QPF
0.00 0.00 0.00 0.00 0.00 0.00 0.00 0.00 0.00 0.00 0.00 0.00 0.00 0.00 0.03 0.01 0.00 0.00 0.00 0.00 0.00 0.00 0.00 0.00 0.00 0.00 0.00 0.00 0.00 0.00 0.00 0.00 0.01 0.03 0.07 0.09 0.04 0.06 0.03 0.03 0.00 0.00 0.00 0.00
0.00 0.00 0.00 0.00 0.00 0.00 0.00 0.00 0.00 0.00 0.00 0.00 0.00 0.00 0.02 0.02 0.00 0.00 0.00 0.00 0.00 0.00 0.00 0.00 0.00 0.00 0.00 0.00 0.00 0.00 0.00 0.00 0.01 0.01 0.01 0.00 0.00 0.00 0.00 0.00 0.02 0.02 0.00 0.03
0.00 0.00 0.00 0.00 0.00 0.00 0.00 0.00 0.00 0.00 0.00 0.00 0.00 0.00 0.00 0.01 0.00 0.00 0.00 0.00 0.00 0.00 0.00 0.00 0.00 0.00 0.01 0.02 0.06 0.05 0.00 0.01 0.03 0.01 0.00 0.00 0.00 0.01 0.00 0.00 0.01 0.00 0.00 0.00
0.00 0.00 0.00 0.00 0.00 0.00 0.00 0.00 0.00 0.00 0.00 0.00 0.00 0.00 0.00 0.00 0.01 0.00 0.00 0.00 0.00 0.00 0.00 0.02 0.00 0.00 0.00 0.05 0.12 0.16 0.02 0.03 0.05 0.01 0.03 0.09 0.13 0.18 0.10 0.03 0.01 0.00 0.00 0.00
0.00 0.00 0.00 0.00 0.00 0.00 0.00 0.00 0.00 0.00 0.00 0.00 0.00 0.00 0.00 0.01 0.02 0.04 0.01 0.00 0.00 0.00 0.00 0.01 0.00 0.01 0.00 0.03 0.15 0.12 0.06 0.14 0.10 0.04 0.18 0.15 0.13 0.17 0.14 0.18 0.14 0.07 0.02 0.00
0.00 0.00 0.00 0.00 0.00 0.00 0.00 0.00 0.00 0.00 0.00 0.00 0.00 0.00 0.00 0.01 0.01 0.03 0.00 0.00 0.00 0.00 0.00 0.00 0.02 0.02 0.00 0.00 0.00 0.00 0.03 0.05 0.05 0.12 0.14 0.04 0.07 0.15 0.25 0.18 0.09 0.11 0.08 0.04
0.00 0.00 0.00 0.00 0.00 0.00 0.00 0.00 0.00 0.00 0.00 0.00 0.00 0.00 0.00 0.00 0.02 0.01 0.00 0.00 0.00 0.00 0.00 0.00 0.01 0.00 0.00 0.00 0.00 0.00 0.00 0.00 0.01 0.03 0.02 0.00 0.00 0.03 0.12 0.10 0.08 0.03 0.00 0.00
0.00 0.00 0.00 0.00 0.00 0.00 0.00 0.00 0.00 0.00 0.00 0.00 0.00 0.00 0.00 0.00 0.00 0.00 0.00 0.00 0.00 0.00 0.00 0.00 0.00 0.00 0.00 0.00 0.00 0.00 0.00 0.00 0.00 0.00 0.00 0.00 0.00 0.00 0.00 0.00 0.00 0.00 0.00 0.00
0.00 0.00 0.00 0.00 0.00 0.00 0.00 0.00 0.00 0.00 0.00 0.00 0.00 0.00 0.00 0.00 0.01 0.00 0.00 0.00 0.00 0.00 0.00 0.00 0.00 0.00 0.00 0.00 0.00 0.00 0.00 0.00 0.00 0.00 0.00 0.00 0.00 0.00 0.00 0.00 0.00 0.00 0.00 0.00
0.00 0.00 0.00 0.00 0.00 0.00 0.00 0.00 0.00 0.00 0.00 0.00 0.00 0.00 0.00 0.00 0.03 0.00 0.00 0.00 0.00 0.00 0.00 0.00 0.00 0.00 0.00 0.00 0.00 0.00 0.00 0.00 0.00 0.00 0.00 0.00 0.00 0.00 0.00 0.00 0.00 0.00 0.00 0.00
0.00 0.00 0.00 0.00 0.00 0.00 0.00 0.00 0.00 0.00 0.00 0.00 0.00 0.00 0.00 0.00 0.01 0.03 0.01 0.00 0.00 0.00 0.00 0.00 0.00 0.00 0.00 0.00 0.00 0.00 0.00 0.00 0.00 0.00 0.00 0.00 0.00 0.00 0.00 0.00 0.00 0.00 0.00 0.00
0.00 0.00 0.00 0.00 0.00 0.00 0.00 0.00 0.00 0.00 0.00 0.00 0.00 0.00 0.00 0.00 0.00 0.05 0.02 0.00 0.00 0.00 0.00 0.00 0.00 0.00 0.00 0.00 0.00 0.00 0.00 0.00 0.00 0.00 0.00 0.00 0.00 0.00 0.00 0.00 0.00 0.00 0.00 0.00
0.00 0.00 0.00 0.00 0.00 0.00 0.00 0.00 0.00 0.00 0.00 0.00 0.00 0.00 0.00 0.00 0.02 0.06 0.02 0.00 0.00 0.00 0.00 0.00 0.00 0.00 0.00 0.00 0.00 0.00 0.00 0.00 0.00 0.00 0.00 0.00 0.00 0.00 0.00 0.00 0.00 0.00 0.00 0.00
0.00 0.00 0.00 0.00 0.00 0.00 0.00 0.00 0.00 0.00 0.00 0.00 0.00 0.00 0.00 0.00 0.00 0.01 0.01 0.00 0.00 0.00 0.00 0.00 0.00 0.00 0.00 0.00 0.00 0.00 0.00 0.00 0.00 0.00 0.00 0.00 0.00 0.00 0.00 0.00 0.00 0.00 0.00 0.00
0.00 0.00 0.00 0.00 0.00 0.00 0.00 0.00 0.00 0.00 0.00 0.00 0.00 0.00 0.00 0.00 0.00 0.00 0.00 0.00 0.00 0.00 0.00 0.00 0.00 0.00 0.00 0.00 0.00 0.00 0.00 0.00 0.00 0.00 0.00 0.00 0.00 0.00 0.00 0.00 0.00 0.00 0.00 0.00
0.00 0.00 0.00 0.00 0.00 0.00 0.00 0.00 0.00 0.00 0.00 0.00 0.00 0.00 0.00 0.00 0.00 0.00 0.00 0.00 0.00 0.00 0.00 0.00 0.00 0.00 0.00 0.00 0.00 0.00 0.00 0.00 0.00 0.00 0.00 0.00 0.00 0.00 0.00 0.00 0.00 0.00 0.00 0.00
0.00 0.00 0.00 0.00 0.00 0.00 0.00 0.00 0.00 0.00 0.00 0.00 0.00 0.00 0.00 0.00 0.00 0.00 0.00 0.00 0.00 0.00 0.00 0.00 0.00 0.00 0.00 0.00 0.00 0.00 0.00 0.00 0.00 0.00 0.00 0.00 0.00 0.00 0.00 0.00 0.00 0.00 0.00 0.00
0.00 0.00 0.00 0.00 0.00 0.00 0.00 0.00 0.00 0.00 0.00 0.00 0.00 0.00 0.00 0.00 0.00 0.00 0.00 0.00 0.00 0.00 0.00 0.00 0.00 0.00 0.00 0.00 0.00 0.00 0.00 0.00 0.00 0.00 0.00 0.00 0.00 0.00 0.00 0.00 0.00 0.00 0.00 0.00
0.00 0.00 0.00 0.00 0.00 0.00 0.00 0.00 0.00 0.00 0.00 0.00 0.00 0.00 0.00 0.00 0.00 0.00 0.00 0.00 0.00 0.00 0.00 0.00 0.00 0.00 0.00 0.00 0.00 0.00 0.00 0.00 0.00 0.00 0.00 0.00 0.00 0.00 0.00 0.00 0.00 0.00 0.00 0.00
0.00 0.00 0.00 0.00 0.00 0.00 0.00 0.00 0.00 0.00 0.00 0.00 0.00 0.00 0.00 0.00 0.00 0.00 0.00 0.00 0.00 0.00 0.00 0.00 0.00 0.00 0.00 0.00 0.00 0.00 0.00 0.00 0.00 0.00 0.00 0.00 0.00 0.00 0.00 0.00 0.00 0.00 0.00 0.00
0.00 0.00 0.00 0.00 0.00 0.00 0.00 0.00 0.00 0.00 0.00 0.00 0.00 0.00 0.00 0.00 0.00 0.00 0.00 0.00 0.00 0.00 0.00 0.00 0.00 0.00 0.00 0.00 0.00 0.00 0.00 0.00 0.00 0.00 0.00 0.00 0.00 0.00 0.00 0.00 0.00 0.00 0.00 0.00
0.00 0.00 0.00 0.00 0.00 0.00 0.00 0.00 0.00 0.00 0.00 0.00 0.00 0.00 0.00 0.00 0.00 0.00 0.00 0.00 0.00 0.00 0.00 0.00 0.00 0.00 0.00 0.00 0.00 0.00 0.00 0.00 0.00 0.00 0.00 0.00 0.00 0.00 0.00 0.00 0.00 0.00 0.00 0.00
0.00 0.00 0.00 0.00 0.00 0.00 0.00 0.00 0.00 0.00 0.00 0.00 0.00 0.00 0.00 0.00 0.01 0.00 0.00 0.00 0.00 0.00 0.00 0.00 0.00 0.00 0.00 0.00 0.00 0.00 0.00 0.00 0.00 0.00 0.00 0.00 0.00 0.00 0.00 0.00 0.00 0.00 0.00 0.00
0.01 0.00 0.00 0.01 0.00 0.00 0.00 0.00 0.00 0.00 0.00 0.00 0.00 0.00 0.00 0.02 0.00 0.00 0.00 0.00 0.00 0.00 0.00 0.00 0.00 0.00 0.00 0.00 0.00 0.00 0.00 0.00 0.00 0.00 0.00 0.00 0.00 0.00 0.00 0.00 0.00 0.00 0.00 0.00
0.00 0.01 0.00 0.00 0.00 0.00 0.00 0.00 0.00 0.00 0.00 0.00 0.00 0.00 0.01 0.02 0.00 0.00 0.00 0.00 0.00 0.00 0.00 0.00 0.00 0.00 0.00 0.00 0.00 0.00 0.00 0.00 0.00 0.00 0.00 0.00 0.00 0.00 0.00 0.00 0.00 0.00 0.00 0.00
0.00 0.00 0.00 0.00 0.03 0.11 0.09 0.06 0.01 0.00 0.00 0.00 0.00 0.00 0.00 0.00 0.00 0.00 0.00 0.00 0.00 0.00 0.00 0.00 0.00 0.00 0.00 0.00 0.00 0.00 0.00 0.00 0.00 0.00 0.00 0.00 0.00 0.00 0.00 0.00 0.00 0.00 0.00 0.00
MSLP
997.13 996.92 996.11 995.09 994.67 996.16 997.28 999.67 998.41 997.22 996.39 996.87 997.00 997.95 1000.70 1000.86 1000.91 1000.59 1001.03 1001.89 1002.54 1002.88 1003.41 1003.99 1004.69 1005.66 1006.47 1007.43 1008.42 1009.32 1010.38 1010.89 1011.45 1012.40 1012.60 1012.36 1012.56 1012.37 1012.37 1012.51 1012.87 1013.44 1013.52 1013.71
996.74 995.87 995.57 994.82 994.81 995.23 995.63 995.86 995.64 995.65 995.61 996.05 997.21 999.36 1000.93 1003.40 1000.73 1000.24 1000.35 1000.90 1001.78 1002.06 1002.89 1003.74 1004.82 1005.70 1006.65 1008.73 1009.08 1009.27 1009.70 1010.37 1011.12 1011.30 1011.70 1011.80 1011.59 1011.79 1011.93 1012.06 1012.37 1012.86 1012.84 1013.11
995.93 995.29 995.02 994.55 994.09 994.22 994.95 994.85 995.11 995.92 995.57 995.08 996.03 997.96 1000.19 1000.18 1000.27 999.86 999.87 1000.34 1000.98 1001.51 1002.34 1003.55 1004.72 1005.89 1007.58 1010.66 1011.13 1011.24 1009.31 1009.95 1010.74 1010.68 1010.81 1011.25 1011.51 1011.61 1011.82 1012.00 1012.16 1012.23 1012.47 1012.66
995.47 995.10 994.32 994.20 993.98 993.84 994.13 994.16 994.25 994.73 994.91 994.78 995.73 996.74 999.33 1000.55 1000.55 1000.15 999.87 999.91 1000.14 1000.99 1002.06 1003.40 1004.63 1006.27 1008.48 1010.47 1011.14 1010.82 1009.92 1009.73 1010.38 1010.26 1010.29 1011.30 1011.37 1011.58 1011.78 1011.86 1012.20 1012.15 1012.21 1012.35
995.11 994.68 994.08 993.54 993.33 993.42 993.99 993.73 994.33 994.92 995.19 995.29 995.45 997.51 1002.09 1002.70 1002.64 1001.67 1000.05 999.48 999.50 1000.32 1001.71 1003.38 1004.22 1005.91 1006.96 1008.72 1009.07 1010.23 1008.99 1009.85 1010.51 1010.98 1011.28 1011.82 1011.87 1012.10 1012.36 1012.50 1012.15 1011.89 1012.01 1011.81
994.93 994.38 993.96 993.46 993.40 993.66 994.04 994.12 994.15 994.65 995.06 995.41 996.47 998.13 1002.49 1003.14 1003.14 1002.16 1000.63 1000.31 998.87 999.83 1001.42 1002.71 1004.08 1005.48 1006.29 1006.60 1007.32 1008.48 1009.21 1010.24 1010.73 1011.20 1011.78 1011.87 1011.25 1011.97 1012.66 1013.07 1012.73 1012.20 1012.16 1012.51
994.76 994.13 993.42 993.28 993.46 993.40 994.03 994.19 994.09 994.47 994.81 995.38 997.21 998.96 1001.75 1002.85 1005.44 1002.98 999.96 998.32 998.37 999.45 1001.46 1002.73 1004.29 1005.30 1006.03 1006.37 1007.24 1008.34 1009.56 1010.45 1010.81 1011.22 1011.75 1011.77 1011.80 1011.87 1012.54 1012.61 1012.59 1012.34 1012.73 1012.94
994.26 993.58 993.46 993.23 993.34 993.44 993.66 993.94 993.77 993.73 994.39 995.42 997.52 997.93 1000.22 1001.63 1000.71 999.24 997.28 997.02 997.80 999.45 1001.40 1002.57 1004.01 1004.92 1005.66 1006.58 1007.43 1008.71 1009.93 1010.71 1011.12 1011.36 1011.67 1011.95 1012.18 1012.20 1012.44 1012.92 1012.80 1012.91 1013.11 1013.38
993.60 992.89 992.64 992.90 993.25 993.78 993.53 993.12 993.53 993.54 994.06 994.59 995.26 997.23 999.31 1000.60 1000.17 998.72 997.45 997.02 997.38 998.82 1000.74 1002.35 1003.72 1004.71 1005.80 1006.90 1007.94 1009.21 1010.10 1010.59 1010.85 1011.10 1011.61 1012.21 1012.43 1012.63 1013.26 1013.57 1013.49 1013.68 1014.02 1013.96
993.46 992.80 991.95 991.68 992.48 992.90 993.46 993.32 993.00 993.33 993.63 994.10 994.65 995.75 998.18 999.93 1002.09 998.74 998.55 997.58 997.71 998.96 1000.25 1002.33 1003.65 1004.99 1006.27 1007.39 1008.50 1009.49 1010.22 1010.66 1010.86 1011.15 1011.85 1012.40 1012.87 1013.24 1013.68 1014.11 1014.24 1014.45 1014.68 1014.67
993.62 993.07 992.22 991.46 991.30 992.24 992.96 993.05 992.90 992.84 992.93 993.21 993.68 995.43 996.44 998.37 999.22 998.15 998.86 998.19 998.32 999.10 1000.45 1002.46 1003.91 1005.43 1006.64 1007.91 1009.01 1009.94 1010.42 1010.86 1011.17 1011.44 1011.94 1012.44 1012.97 1013.48 1013.70 1014.14 1014.57 1014.75 1015.02 1014.87
993.15 993.28 992.62 991.74 991.33 991.78 992.51 992.61 992.82 992.89 993.24 993.35 993.40 994.15 996.09 997.20 998.63 998.73 998.63 998.81 999.04 999.61 1000.64 1002.54 1004.09 1005.52 1007.24 1008.20 1009.18 1010.10 1010.53 1010.80 1011.15 1011.92 1012.37 1012.75 1013.15 1013.51 1013.99 1014.30 1014.63 1014.88 1015.06 1015.05
993.92 993.86 993.15 992.18 991.61 991.43 991.89 992.34 992.40 992.22 992.50 992.72 993.01 995.12 996.08 998.05 999.71 1000.43 999.72 999.20 999.54 1000.08 1001.04 1002.72 1004.35 1005.70 1007.03 1008.31 1009.46 1010.17 1010.59 1010.81 1011.40 1011.96 1012.32 1012.84 1013.22 1013.66 1014.22 1014.57 1014.93 1015.21 1015.29 1015.27
994.95 994.13 993.03 992.22 991.60 991.22 991.30 991.74 992.03 991.90 991.53 992.00 992.16 993.33 994.71 996.29 997.43 998.73 999.26 999.69 1000.16 1000.38 1001.53 1003.04 1004.68 1006.06 1007.42 1008.59 1009.57 1010.18 1010.41 1011.02 1011.38 1011.78 1012.64 1013.31 1013.68 1014.02 1014.44 1014.96 1015.27 1015.50 1015.61 1015.72
995.05 994.27 993.47 992.74 992.14 991.44 990.93 990.70 991.30 991.83 991.61 991.36 991.18 991.86 992.90 993.88 995.24 996.64 997.75 999.43 1000.14 1000.93 1002.15 1003.51 1004.78 1006.45 1007.55 1008.56 1009.27 1009.88 1010.53 1011.02 1011.81 1012.57 1013.27 1013.83 1014.30 1014.74 1015.16 1015.54 1015.82 1015.98 1016.06 1016.17
994.98 994.53 994.20 993.47 992.63 991.90 991.19 990.68 990.56 990.71 991.23 991.51 991.39 991.06 991.30 991.63 994.56 995.88 996.88 998.49 999.74 1000.86 1002.26 1003.56 1004.86 1006.43 1007.44 1008.47 1009.18 1009.93 1010.68 1011.54 1012.35 1012.91 1013.61 1014.27 1014.75 1015.15 1015.51 1015.79 1016.05 1016.19 1016.40 1016.39
994.42 994.30 994.33 993.70 993.14 992.51 991.50 990.85 990.64 990.63 990.55 990.64 990.77 990.98 991.21 992.30 993.28 994.71 996.82 998.14 999.59 1000.43 1001.59 1003.17 1004.81 1006.12 1007.37 1008.28 1009.12 1010.12 1010.96 1011.79 1012.59 1013.28 1014.01 1014.61 1015.00 1015.36 1015.82 1016.03 1016.25 1016.33 1016.51 1016.51
994.30 994.23 994.03 993.81 993.52 992.45 991.46 991.00 990.62 990.50 990.38 990.32 990.20 990.22 990.79 991.48 992.73 994.89 996.06 997.71 999.15 1000.39 1001.37 1002.83 1004.38 1005.82 1007.03 1008.02 1009.34 1010.38 1011.28 1012.09 1012.85 1013.58 1014.23 1014.74 1015.12 1015.56 1015.95 1016.16 1016.34 1016.29 1016.32 1016.50
994.87 994.57 994.35 994.03 993.49 992.70 991.68 990.89 990.13 989.71 989.63 990.01 990.08 990.06 990.48 991.49 993.56 996.05 999.16 998.09 998.57 1000.19 1001.37 1002.81 1004.19 1005.42 1006.56 1008.04 1009.51 1010.60 1011.53 1012.33 1013.05 1013.66 1014.23 1014.69 1015.05 1015.57 1015.94 1016.15 1016.17 1016.31 1016.40 1016.41
994.88 994.47 994.59 994.51 993.70 992.36 991.04 990.29 989.75 989.72 989.40 989.56 989.65 990.02 990.33 990.99 992.57 995.01 996.58 997.33 998.66 1000.02 1000.95 1002.50 1003.85 1005.03 1006.51 1008.20 1009.74 1010.97 1011.75 1012.41 1013.00 1013.60 1014.19 1014.66 1015.04 1015.48 1015.77 1016.07 1016.29 1016.38 1016.43 1016.29
994.66 994.71 994.50 994.64 994.24 993.04 991.71 990.52 990.24 989.94 990.09 989.72 989.87 990.07 990.48 991.14 991.77 992.88 995.62 997.35 998.35 999.84 1001.53 1002.40 1003.85 1005.19 1006.86 1008.37 1009.71 1010.96 1011.77 1012.36 1013.02 1013.70 1014.32 1014.78 1015.16 1015.41 1015.73 1016.07 1016.16 1016.14 1016.08 1016.18
996.19 996.18 995.30 995.43 995.05 994.26 993.17 991.68 992.36 992.48 991.36 990.51 990.54 990.45 991.22 992.63 993.05 993.66 995.56 998.02 998.77 999.70 1001.61 1003.03 1004.49 1006.21 1007.48 1008.69 1009.89 1010.99 1011.77 1012.41 1013.10 1013.84 1014.47 1014.91 1015.29 1015.39 1015.69 1015.89 1016.05 1016.02 1015.96 1015.85
996.64 997.66 997.48 998.52 997.59 995.95 994.58 994.34 994.50 993.49 992.97 992.62 991.72 991.97 992.95 994.25 995.23 997.66 995.97 997.47 999.30 1001.02 1001.84 1003.30 1005.16 1006.84 1007.91 1009.01 1010.11 1011.01 1011.85 1012.55 1013.23 1013.83 1014.48 1014.88 1015.01 1015.19 1015.41 1015.68 1015.73 1015.67 1015.54 1015.34
997.89 999.91 999.27 999.26 997.44 997.25 996.17 995.25 995.28 995.03 993.96 993.00 992.35 992.33 992.56 993.77 994.66 997.53 997.92 998.75 1000.09 1001.44 1002.21 1003.92 1005.81 1006.97 1008.26 1009.47 1010.52 1011.38 1012.15 1012.75 1013.30 1013.69 1014.32 1014.66 1014.85 1015.06 1015.34 1015.36 1015.16 1015.07 1014.76 1014.92
998.74 1000.97 1000.91 1000.32 998.99 998.18 997.12 998.03 995.98 995.81 994.95 993.72 993.02 992.19 991.92 992.27 994.16 995.67 997.94 999.64 1000.42 1001.57 1003.10 1004.87 1006.33 1006.77 1008.60 1009.80 1010.81 1011.79 1012.45 1012.94 1013.29 1013.72 1014.05 1014.37 1014.56 1014.89 1014.92 1014.90 1014.42 1014.63 1014.95 1015.15
998.14 999.69 999.94 1000.96 999.70 1000.44 1001.69 1001.08 996.54 995.50 994.80 994.05 993.26 992.31 992.19 992.72 993.86 996.03 998.39 1000.04 1001.45 1002.74 1004.11 1005.22 1006.63 1007.49 1009.12 1010.21 1010.99 1011.84 1012.45 1012.88 1013.20 1013.59 1013.72 1013.69 1013.85 1014.21 1014.18 1014.18 1014.28 1014.46 1014.61 1014.78
Thickness
5881 5860 5855 5882 5905 5887 5877 5828 5829 5882 5903 5887 5884 5884 5862 5870 5869 5863 5858 5850 5846 5845 5850 5851 5844 5838 5833 5827 5816 5808 5799 5792 5792 5780 5776 5779 5777 5782 5782 5780 5776 5771 5769 5765
5864 5854 5884 5904 5906 5895 5893 5886 5888 5895 5904 5892 5866 5849 5829 5813 5868 5870 5864 5859 5850 5851 5850 5848 5841 5833 5828 5810 5810 5807 5804 5799 5790 5789 5787 5786 5788 5788 5786 5784 5779 5774 5774 5769
5854 5875 5899 5897 5899 5892 5886 5884 5879 5858 5889 5902 5885 5865 5855 5872 5876 5881 5876 5869 5863 5855 5851 5845 5836 5828 5817 5782 5777 5782 5803 5801 5795 5796 5797 5791 5787 5785 5781 5780 5779 5777 5775 5772
5867 5891 5891 5889 5884 5898 5870 5906 5898 5883 5873 5854 5889 5839 5849 5858 5861 5868 5873 5871 5868 5862 5861 5850 5839 5821 5806 5784 5777 5783 5793 5799 5796 5797 5794 5784 5779 5774 5775 5777 5776 5776 5774 5774
5858 5872 5879 5880 5892 5906 5879 5910 5890 5883 5868 5867 5875 5841 5778 5824 5820 5831 5853 5874 5878 5870 5862 5849 5844 5825 5824 5809 5805 5793 5804 5797 5792 5786 5779 5773 5769 5771 5770 5770 5771 5774 5775 5779
5867 5898 5892 5892 5904 5903 5904 5891 5891 5886 5871 5834 5855 5847 5787 5799 5804 5820 5840 5846 5882 5875 5866 5860 5852 5839 5830 5834 5828 5816 5805 5796 5792 5785 5776 5774 5775 5771 5763 5757 5764 5769 5775 5774
5854 5865 5894 5903 5879 5899 5887 5870 5837 5829 5833 5828 5850 5833 5813 5805 5779 5821 5846 5878 5887 5879 5862 5856 5844 5839 5835 5834 5827 5817 5803 5793 5792 5788 5779 5780 5778 5777 5768 5769 5769 5770 5769 5769
5826 5826 5868 5891 5876 5868 5870 5869 5843 5812 5822 5830 5834 5828 5832 5823 5838 5878 5906 5899 5891 5873 5861 5855 5848 5845 5841 5833 5826 5813 5801 5793 5791 5786 5782 5780 5776 5776 5773 5768 5768 5765 5763 5761
5834 5841 5891 5887 5888 5879 5864 5858 5888 5859 5867 5850 5863 5850 5845 5840 5851 5882 5894 5893 5886 5875 5865 5855 5848 5844 5836 5826 5819 5808 5799 5795 5793 5790 5785 5777 5775 5772 5763 5760 5760 5757 5753 5754
5854 5834 5886 5897 5894 5887 5868 5889 5856 5861 5818 5812 5850 5851 5818 5812 5776 5862 5869 5880 5883 5876 5867 5854 5847 5838 5831 5822 5814 5806 5800 5794 5792 5789 5782 5775 5770 5766 5761 5754 5750 5747 5743 5742
5857 5851 5858 5889 5875 5859 5860 5853 5866 5873 5867 5836 5834 5831 5859 5839 5840 5861 5859 5876 5878 5873 5864 5851 5843 5834 5827 5817 5808 5799 5795 5790 5787 5784 5780 5774 5768 5761 5757 5751 5745 5742 5738 5738
5863 5848 5831 5855 5893 5895 5876 5863 5866 5839 5832 5854 5858 5855 5876 5866 5862 5857 5860 5868 5873 5870 5863 5850 5839 5830 5816 5810 5804 5796 5792 5789 5786 5778 5773 5767 5763 5758 5751 5746 5741 5737 5733 5731
5849 5826 5810 5831 5866 5883 5861 5866 5870 5878 5873 5847 5843 5823 5871 5854 5836 5831 5849 5865 5865 5861 5856 5845 5834 5825 5815 5807 5797 5792 5789 5786 5780 5774 5769 5763 5758 5753 5745 5741 5736 5731 5728 5724
5834 5825 5826 5815 5841 5870 5853 5858 5866 5868 5854 5853 5861 5863 5865 5845 5836 5833 5838 5853 5853 5853 5847 5838 5827 5818 5809 5801 5793 5788 5786 5782 5777 5772 5762 5754 5749 5745 5739 5733 5728 5723 5720 5715
5826 5805 5828 5842 5855 5864 5867 5869 5863 5847 5858 5850 5871 5872 5877 5878 5866 5855 5863 5853 5846 5842 5836 5829 5823 5810 5805 5796 5792 5787 5781 5777 5769 5760 5752 5746 5741 5735 5729 5723 5718 5713 5709 5705
5824 5799 5814 5812 5842 5850 5848 5866 5870 5869 5862 5857 5863 5867 5906 5902 5879 5865 5862 5854 5844 5838 5832 5827 5819 5808 5801 5793 5787 5782 5774 5766 5759 5752 5744 5738 5732 5726 5720 5715 5710 5706 5700 5697
5813 5809 5800 5790 5826 5830 5819 5847 5858 5862 5872 5868 5845 5871 5896 5886 5877 5867 5858 5855 5843 5838 5833 5825 5813 5806 5797 5791 5785 5775 5768 5761 5752 5744 5737 5730 5724 5718 5712 5707 5703 5698 5692 5689
5808 5806 5811 5794 5809 5775 5836 5868 5869 5858 5866 5875 5878 5887 5892 5894 5890 5870 5864 5853 5845 5838 5832 5823 5815 5805 5797 5792 5780 5771 5762 5753 5744 5736 5729 5723 5717 5710 5705 5701 5695 5692 5688 5682
5813 5805 5794 5786 5789 5812 5831 5851 5857 5855 5855 5875 5870 5883 5891 5898 5864 5820 5799 5847 5849 5839 5829 5820 5814 5805 5798 5786 5774 5763 5754 5745 5737 5730 5723 5717 5712 5704 5699 5693 5689 5685 5679 5675
5810 5817 5799 5792 5777 5780 5836 5868 5886 5879 5833 5879 5881 5877 5883 5890 5850 5832 5850 5856 5844 5836 5829 5819 5812 5804 5793 5779 5767 5754 5746 5739 5732 5725 5718 5712 5707 5699 5693 5687 5681 5677 5673 5670
5789 5793 5783 5787 5783 5807 5849 5871 5877 5825 5835 5879 5881 5881 5883 5868 5874 5876 5856 5847 5844 5834 5823 5818 5808 5795 5783 5774 5763 5748 5740 5733 5728 5720 5712 5705 5699 5694 5688 5681 5677 5674 5670 5664
5761 5760 5782 5792 5781 5774 5841 5853 5819 5827 5852 5865 5873 5879 5871 5861 5858 5860 5845 5834 5829 5827 5816 5806 5793 5781 5775 5767 5755 5742 5734 5729 5722 5713 5705 5698 5693 5688 5682 5676 5670 5666 5662 5657
5746 5756 5754 5745 5752 5793 5823 5816 5817 5824 5834 5838 5856 5855 5847 5833 5816 5782 5823 5833 5825 5813 5805 5799 5784 5771 5766 5758 5748 5736 5729 5723 5715 5707 5699 5693 5688 5683 5677 5669 5664 5661 5659 5655
5746 5732 5730 5745 5781 5780 5798 5815 5816 5819 5823 5840 5846 5849 5855 5833 5825 5813 5816 5819 5812 5805 5796 5788 5773 5764 5755 5748 5739 5730 5723 5717 5709 5702 5693 5687 5680 5674 5669 5665 5663 5659 5658 5650
5738 5700 5704 5724 5758 5767 5786 5775 5796 5805 5817 5827 5837 5847 5846 5810 5832 5824 5812 5807 5804 5796 5787 5775 5762 5760 5747 5740 5730 5721 5714 5708 5701 5694 5688 5680 5675 5667 5664 5661 5662 5655 5649 5642
5747 5716 5682 5701 5745 5737 5716 5725 5788 5801 5807 5818 5830 5843 5854 5845 5832 5822 5807 5799 5790 5781 5774 5766 5753 5747 5738 5730 5721 5714 5708 5700 5694 5686 5682 5679 5674 5666 5663 5659 5654 5650 5644 5637